This demonstration page uses our WeatherBlox Daily Observations layout. Learn more.

Left ArrowRight Arrow

Hourly Observations for September 21, 2022

Temp ( °F °C ) Dew Point ( °F °C ) Humidity (%) Winds ( mph kmh ) Pressure ( in mb ) Visibility ( mi km ) Precip ( " mm )
12:15 am 00:15 Clear 72 22 70 21 94 94 S 6 9 29.93 1014 10 16 0.00 0.00
12:35 am 00:35 Clear 72 22 72 22 100 100 S 6 9 29.93 1014 10 16 0.00 0.00
12:55 am 00:55 Clear 72 22 72 22 100 100 S 6 9 29.93 1014 10 16 0.00 0.00
1:15 am 01:15 Clear 72 22 72 22 100 100 S 6 9 29.93 1014 10 16 0.00 0.00
1:35 am 01:35 Clear 72 22 72 22 100 100 S 6 9 29.94 1014 10 16 0.00 0.00
1:55 am 01:55 Clear 70 21 70 21 100 100 S 6 9 29.93 1014 10 16 0.00 0.00
6:15 am 06:15 Clear 68 20 68 20 100 100 S 5 7 29.92 1013 10 16 0.00 0.00
6:35 am 06:35 Clear 68 20 68 20 100 100 S 6 9 29.92 1013 10 16 0.00 0.00
6:55 am 06:55 Clear 68 20 68 20 100 100 S 3 6 29.92 1013 10 16 0.00 0.00
7:15 am 07:15 Clear 68 20 68 20 100 100 SSE 5 7 29.92 1013 10 16 0.00 0.00
7:35 am 07:35 Sunny 68 20 68 20 100 100 SSE 3 6 29.92 1013 10 16 0.00 0.00
7:55 am 07:55 Sunny 68 20 68 20 100 100 S 3 6 29.94 1014 10 16 0.00 0.00
8:15 am 08:15 Sunny 68 20 68 20 100 100 SSE 3 6 29.94 1014 10 16 0.00 0.00
8:35 am 08:35 Sunny 70 21 70 21 100 100 S 3 6 29.93 1014 10 16 0.00 0.00
8:55 am 08:55 Sunny 72 22 72 22 100 100 S 3 6 29.93 1014 10 16 0.00 0.00
9:15 am 09:15 Partly Cloudy 73 23 73 23 100 100 SSW 6 9 29.93 1013 10 16 0.00 0.00
9:35 am 09:35 Mostly Cloudy 73 23 73 23 100 100 SSW 5 7 29.92 1013 10 16 0.00 0.00
9:55 am 09:55 Partly Cloudy 77 25 73 23 89 89 SSW 6 9 29.90 1013 10 16 0.00 0.00
10:15 am 10:15 Sunny 79 26 72 22 79 79 SW 10 17 29.90 1013 10 16 0.00 0.00
10:35 am 10:35 Sunny 81 27 72 22 74 74 SW 8 13 29.89 1012 10 16 0.00 0.00
10:55 am 10:55 Sunny 82 28 70 21 66 66 SW 8 13 29.88 1012 10 16 0.00 0.00
11:15 am 11:15 Sunny 84 29 70 21 62 62 SW 8 13 29.88 1012 10 16 0.00 0.00
11:35 am 11:35 Partly Cloudy 84 29 70 21 62 62 SW 9 15 29.88 1012 10 16 0.00 0.00
11:55 am 11:55 Sunny 86 30 70 21 59 59 SW 5 7 29.88 1012 10 16 0.00 0.00
12:15 pm 12:15 Sunny 88 31 70 21 55 55 SSW 5 7 29.87 1011 10 16 0.00 0.00
12:35 pm 12:35 Sunny 88 31 70 21 55 55 SW 3 6 29.86 1011 10 16 0.00 0.00
12:55 pm 12:55 Sunny 90 32 70 21 52 52 SSW 6 9 29.85 1011 10 16 0.00 0.00
1:15 pm 13:15 Sunny 90 32 70 21 52 52 SSW 8 13 29.84 1011 10 16 0.00 0.00
1:35 pm 13:35 Sunny 90 32 70 21 52 52 SW 10 17 29.84 1011 10 16 0.00 0.00
1:55 pm 13:55 Partly Cloudy 90 32 68 20 49 49 WSW 10 17 29.83 1010 10 16 0.00 0.00
2:15 pm 14:15 Partly Cloudy 91 33 66 19 44 44 W 13 20 29.83 1010 10 16 0.00 0.00
2:35 pm 14:35 Partly Cloudy 91 33 66 19 44 44 W 9 15 29.82 1010 10 16 0.00 0.00
2:55 pm 14:55 Partly Cloudy 91 33 68 20 46 46 W 10 17 29.82 1010 10 16 0.00 0.00
3:15 pm 15:15 Partly Cloudy 91 33 66 19 44 44 W 13 20 29.81 1009 10 16 0.00 0.00
3:35 pm 15:35 Mostly Cloudy 90 32 66 19 46 46 W 10 17 29.81 1010 10 16 0.00 0.00
3:55 pm 15:55 Partly Cloudy 91 33 68 20 46 46 W 10 17 29.80 1009 10 16 0.00 0.00
4:15 pm 16:15 Partly Cloudy 90 32 66 19 46 46 W 15 24 29.80 1009 10 16 0.00 0.00
4:35 pm 16:35 Partly Cloudy 88 31 66 19 49 49 W 13 20 29.81 1009 10 16 0.00 0.00
4:55 pm 16:55 Sunny 88 31 66 19 49 49 WNW 15 24 29.81 1009 10 16 0.00 0.00
5:15 pm 17:15 Partly Cloudy 88 31 64 18 46 46 W 10 17 29.81 1009 10 16 0.00 0.00
5:35 pm 17:35 Sunny 86 30 66 19 52 52 WNW 9 15 29.81 1009 10 16 0.00 0.00
5:55 pm 17:55 Sunny 86 30 66 19 52 52 WNW 8 13 29.81 1009 10 16 0.00 0.00
6:15 pm 18:15 Sunny 86 30 66 19 52 52 WNW 12 19 29.81 1009 10 16 0.00 0.00
6:35 pm 18:35 Sunny 86 30 66 19 52 52 W 8 13 29.80 1009 10 16 0.00 0.00
6:55 pm 18:55 Sunny 84 29 63 17 48 48 W 10 17 29.81 1010 10 16 0.00 0.00
7:15 pm 19:15 Sunny 82 28 63 17 51 51 W 12 19 29.82 1010 10 16 0.00 0.00
7:35 pm 19:35 Partly Cloudy 81 27 64 18 58 58 W 5 7 29.82 1010 10 16 0.00 0.00
7:55 pm 19:55 Partly Cloudy 79 26 64 18 61 61 WSW 6 9 29.83 1010 10 16 0.00 0.00
8:15 pm 20:15 Clear 79 26 63 17 58 58 W 6 9 29.83 1010 10 16 0.00 0.00
8:35 pm 20:35 Clear 79 26 63 17 58 58 W 8 13 29.84 1010 10 16 0.00 0.00
8:55 pm 20:55 Mostly Cloudy 79 26 63 17 58 58 W 7 11 29.84 1010 10 16 0.00 0.00
9:15 pm 21:15 Cloudy 79 26 63 17 58 58 WNW 7 11 29.85 1011 10 16 0.00 0.00
9:35 pm 21:35 Cloudy 79 26 64 18 61 61 W 12 19 29.85 1011 10 16 0.00 0.00
9:55 pm 21:55 Mostly Cloudy 79 26 66 19 65 65 WNW 16 26 29.85 1011 10 16 0.00 0.00
10:15 pm 22:15 Mostly Cloudy 79 26 66 19 65 65 WNW 13 20 29.85 1011 10 16 0.00 0.00
10:35 pm 22:35 Partly Cloudy 77 25 68 20 74 74 W 12 19 29.85 1011 10 16 0.00 0.00
10:55 pm 22:55 Clear 77 25 68 20 74 74 W 12 19 29.84 1011 10 16 0.00 0.00
11:15 pm 23:15 Clear 77 25 68 20 74 74 WNW 14 22 29.85 1011 10 16 0.00 0.00
11:35 pm 23:35 Clear 77 25 68 20 74 74 WNW 10 17 29.85 1011 10 16 0.00 0.00
11:55 pm 23:55 Clear 75 24 70 21 83 83 NW 8 13 29.86 1011 10 16 0.00 0.00

Powered by AerisWeather